STARLINK-33963, 63968

Orbit data source: Space-Track

STARLINK-33963, 63968 is a payload satellite owned by SpaceX/Seattle (US) in LEO that was launched on Tue, 13 May 2025 UTC via an FALCON 9 launch vehicle from the Air Force Eastern Test Range (AFETR). Payload-class satellites include a variety of spacecraft equipped with specific instruments for various scientific and technological missions. These include communications satellites like Starlink; space stations such as the ISS; scientific satellites like the Hubble; Earth observation satellites from companies like Planet Labs, Umbra, and HawkEye 360; GPS; miniature CubeSats for education and research; and military/defense satellites.

Loading next visibility...
Identifier
63968, 2025-099S
Orbit
LEO
Country
Flag of USUS
Related business
Manufacturer
SpaceX/Seattle
Mission
Operational Commercial Communications
Bus & Motor
STARLINK V2MO, Unknown motor
Mass
575 kg wet, ~530 kg dry
Launch date (UTC)
2025-05-13 (11 months ago)
Launch vehicle
FALCON 9
Launch site
Air Force Eastern Test Range (AFETR)
Object type
Payload
Rocket body
Debris
Shape & HBR
Box + 2 Pan, 17.7 m
Radar Cross Section
36.964 m², Large (>1 m²)

Expand to show TLE details & history
Last TLE update: 16 hours ago

TLE from 16 hours ago
0 STARLINK-33963
1 63968U 25099S   26093.82547889  .00034275  00000-0  12489-2 0  9995
2 63968  43.0025  33.9929 0000835  26.5509 333.5385 15.27590534 51182
Epoch: 2026-04-03T19:48Z
TLE epoch observation values (Epoch: 2026-04-03T19:48:41.376Z)
Latitude
-0.00002°
Longitude
-95.33357°
Altitude
482.28 km
Speed
7.626 km/s
True Right ascension
02h 15m 58s
True Declination
0° 00' 00"
Sunlit
Object was in daylight at epoch
Visualization orbit readout
Latitude
Unknown
Longitude
Unknown
Altitude
Unknown
Speed
Unknown
Apparent Right ascension
Unknown
Apparent Declination
Unknown
Sunlit
N/A
Visualization observer readout
Local Sidereal Time
18:01:44
Azimuth
Unknown
Elevation
Unknown
Doppler factor
Unknown
Orbital elements
Apogee altitude
485.535 km
Perigee altitude
484.389 km
Semi-major axis
6,863.099 km
Eccentricity
0.00008
Inclination
43.0025°
RAAN
33.9929°
Arg. of periapsis
26.5509°
True anomaly
333.53424°
Mean anomaly
333.5385°
Eccentric anomaly
333.53637°
Mean motion
3.81736 °/min
Orbital period
94.31 mins
BSTAR
0.0012489
Loading maneuver chart data...
Computing Atmospheric mass density...
Loading historical data...
Loading historical data...
Loading historical data...
Loading historical data...
Loading historical data...
Loading historical data...
Loading historical data...

Documentation

Showing up to 5 results
|